TimeMST,TemperatureF,Dew PointF,Humidity,Sea Level PressureIn,VisibilityMPH,Wind Direction,Wind SpeedMPH,Gust SpeedMPH,PrecipitationIn,Events,Conditions,WindDirDegrees,DateUTC
12:54 AM,44.1,34.0,68,29.90,10.0,WSW,8.1,-,N/A,,Mostly Cloudy,240,2013-04-03 07:54:00
1:54 AM,43.0,32.0,65,29.92,10.0,WSW,9.2,-,N/A,,Clear,240,2013-04-03 08:54:00
2:54 AM,42.1,30.9,65,29.91,10.0,WSW,8.1,-,N/A,,Clear,240,2013-04-03 09:54:00
3:54 AM,39.9,30.9,70,29.94,10.0,West,4.6,-,N/A,,Clear,270,2013-04-03 10:54:00
4:54 AM,39.9,30.9,70,29.96,10.0,Calm,Calm,-,N/A,,Clear,0,2013-04-03 11:54:00
5:54 AM,34.0,28.0,79,30.01,10.0,South,3.5,-,N/A,,Clear,190,2013-04-03 12:54:00
6:54 AM,37.9,30.0,73,30.04,10.0,Calm,Calm,-,N/A,,Clear,0,2013-04-03 13:54:00
7:54 AM,42.1,30.9,65,30.04,10.0,Calm,Calm,-,N/A,,Clear,0,2013-04-03 14:54:00
8:54 AM,48.0,30.9,52,30.04,10.0,NW,4.6,-,N/A,,Clear,310,2013-04-03 15:54:00
9:54 AM,51.1,30.0,44,30.04,10.0,NW,5.8,-,N/A,,Clear,320,2013-04-03 16:54:00
10:54 AM,55.9,28.9,36,30.02,10.0,West,10.4,-,N/A,,Partly Cloudy,270,2013-04-03 17:54:00
11:54 AM,57.9,28.0,32,30.01,10.0,NW,12.7,18.4,N/A,,Partly Cloudy,310,2013-04-03 18:54:00
12:54 PM,61.0,25.0,25,29.99,10.0,Variable,6.9,-,0.00,,Clear,0,2013-04-03 19:54:00
1:54 PM,62.1,24.1,23,29.97,10.0,West,11.5,21.9,N/A,,Clear,280,2013-04-03 20:54:00
2:54 PM,64.9,23.0,20,29.95,10.0,West,12.7,18.4,N/A,,Clear,280,2013-04-03 21:54:00
3:54 PM,64.9,19.9,18,29.96,10.0,WNW,11.5,18.4,N/A,,Clear,290,2013-04-03 22:54:00
4:54 PM,64.9,15.1,15,29.95,10.0,NNW,11.5,-,N/A,,Clear,330,2013-04-03 23:54:00
5:54 PM,64.0,16.0,16,29.99,10.0,WNW,10.4,-,N/A,,Clear,300,2013-04-04 00:54:00
6:54 PM,55.9,17.1,22,30.01,10.0,WNW,5.8,-,N/A,,Clear,290,2013-04-04 01:54:00
7:54 PM,50.0,17.1,27,30.04,10.0,WSW,4.6,-,N/A,,Clear,240,2013-04-04 02:54:00
8:54 PM,48.9,19.0,31,30.04,10.0,West,4.6,-,N/A,,Clear,260,2013-04-04 03:54:00
9:54 PM,46.0,19.0,34,30.06,10.0,SSW,4.6,-,N/A,,Clear,200,2013-04-04 04:54:00
10:54 PM,45.0,19.0,36,30.05,10.0,SSE,3.5,-,N/A,,Clear,150,2013-04-04 05:54:00
11:54 PM,39.9,19.0,43,30.09,10.0,Calm,Calm,-,N/A,,Clear,0,2013-04-04 06:54:00